When you browse on this site, cookies collect data to enhance your experience and personalize the content and advertising you see.
Visit our Privacy Policy to learn more. By continuing to use the site, you agree to this use of cookies and data.
  • In France
  • List of Countries
  • For 7 days
  • Water Temperature
  • Satellite Maps
  • Weather Map
  • Weather Widgets
  • user-avatar
    Login

    Hourly Weather Wucheng

    Today, 18 July, Thursday

    Time Temperature Precipitation Wind Pressure Humidity
    00:00 +27°C° 0 mm 1 mps 732 mmHg 91%
    01:00 +26°C° 0 mm 1 mps 731 mmHg 92%
    02:00 +26°C° 0 mm 1 mps 731 mmHg 93%
    03:00 +26°C° 0 mm 1 mps 731 mmHg 93%
    04:00 +26°C° 0 mm 1 mps 731 mmHg 94%
    05:00 +25°C° 0 mm 1 mps 731 mmHg 95%
    06:00 +27°C° 0 mm 1 mps 731 mmHg 92%
    07:00 +28°C° 0 mm 1 mps 731 mmHg 88%
    08:00 +30°C° 0 mm 1 mps 731 mmHg 85%
    09:00 +31°C° 0 mm 1 mps 731 mmHg 76%
    10:00 +33°C° 0 mm 1 mps 731 mmHg 67%
    11:00 +35°C° 0 mm 1 mps 731 mmHg 57%
    12:00 +35°C° 0.1 mm 1 mps 730 mmHg 57%
    13:00 +36°C° 0.1 mm 1 mps 729 mmHg 56%
    14:00 +37°C° 0 mm 2 mps 729 mmHg 53%
    15:00 +36°C° 0.5 mm 2 mps 729 mmHg 61%
    16:00 +35°C° 0.5 mm 2 mps 729 mmHg 69%
    17:00 +33°C° 0.5 mm 1 mps 729 mmHg 78%
    18:00 +31°C° 0.1 mm 1 mps 729 mmHg 82%
    19:00 +30°C° 0.1 mm 1 mps 729 mmHg 86%
    20:00 +28°C° 0.1 mm 1 mps 729 mmHg 91%
    21:00 +28°C° 0 mm 1 mps 729 mmHg 92%
    22:00 +25°C° 0 mm 0 mps 730 mmHg 93%
    23:00 +25°C° 0 mm 0 mps 730 mmHg 94%

    Tomorrow, 19 July, Friday

    Time Temperature Precipitation Wind Pressure Humidity
    00:00 +25°C° 0 mm 0 mps 730 mmHg 95%
    01:00 +24°C° 0 mm 0 mps 729 mmHg 95%
    02:00 +24°C° 0 mm 0 mps 729 mmHg 96%
    03:00 +24°C° 0 mm 0 mps 729 mmHg 97%
    04:00 +24°C° 0 mm 0 mps 729 mmHg 97%
    05:00 +24°C° 0 mm 0 mps 729 mmHg 97%
    06:00 +27°C° 0.1 mm 1 mps 729 mmHg 94%
    07:00 +28°C° 0.1 mm 1 mps 730 mmHg 91%
    08:00 +29°C° 0.1 mm 1 mps 730 mmHg 88%
    09:00 +31°C° 0.1 mm 1 mps 730 mmHg 80%
    10:00 +33°C° 0.1 mm 1 mps 730 mmHg 71%
    11:00 +34°C° 0.1 mm 1 mps 731 mmHg 62%
    12:00 +35°C° 0 mm 1 mps 730 mmHg 60%
    13:00 +35°C° 0 mm 1 mps 729 mmHg 58%
    14:00 +36°C° 0 mm 1 mps 729 mmHg 56%
    15:00 +35°C° 0.1 mm 1 mps 729 mmHg 60%
    16:00 +34°C° 0.1 mm 1 mps 729 mmHg 63%
    17:00 +34°C° 0.1 mm 1 mps 729 mmHg 67%
    18:00 +32°C° 0.1 mm 1 mps 729 mmHg 74%
    19:00 +30°C° 0.1 mm 1 mps 730 mmHg 81%
    20:00 +28°C° 0.1 mm 1 mps 730 mmHg 89%
    21:00 +28°C° 0 mm 1 mps 730 mmHg 90%
    22:00 +27°C° 0 mm 1 mps 731 mmHg 91%
    23:00 +25°C° 0 mm 0 mps 731 mmHg 92%

    Day after tomorrow, 20 July, Saturday

    Time Temperature Precipitation Wind Pressure Humidity
    00:00 +25°C° 0 mm 0 mps 731 mmHg 93%
    01:00 +25°C° 0 mm 0 mps 731 mmHg 94%
    02:00 +24°C° 0 mm 0 mps 730 mmHg 95%
    03:00 +24°C° 0 mm 0 mps 730 mmHg 95%
    04:00 +24°C° 0 mm 0 mps 731 mmHg 96%
    05:00 +24°C° 0 mm 0 mps 731 mmHg 96%
    06:00 +25°C° 0 mm 0 mps 731 mmHg 91%
    07:00 +27°C° 0 mm 0 mps 732 mmHg 86%
    08:00 +28°C° 0 mm 0 mps 732 mmHg 81%
    09:00 +30°C° 0.6 mm 0 mps 732 mmHg 78%
    10:00 +31°C° 0.6 mm 0 mps 732 mmHg 76%
    11:00 +32°C° 0.6 mm 0 mps 732 mmHg 74%
    12:00 +33°C° 1.6 mm 0 mps 731 mmHg 72%
    13:00 +33°C° 1.6 mm 0 mps 731 mmHg 71%
    14:00 +33°C° 1.6 mm 0 mps 731 mmHg 69%
    15:00 +33°C° 1 mm 0 mps 730 mmHg 71%
    16:00 +32°C° 1 mm 0 mps 730 mmHg 73%
    17:00 +32°C° 1 mm 0 mps 730 mmHg 74%
    18:00 +30°C° 0.2 mm 0 mps 730 mmHg 79%
    19:00 +28°C° 0.2 mm 0 mps 730 mmHg 84%
    20:00 +27°C° 0.2 mm 0 mps 730 mmHg 88%
    21:00 +27°C° 0.1 mm 0 mps 731 mmHg 89%
    22:00 +26°C° 0.1 mm 0 mps 731 mmHg 90%
    23:00 +26°C° 0.1 mm 0 mps 731 mmHg 91%

    21 July, Sunday

    Time Temperature Precipitation Wind Pressure Humidity
    00:00 +26°C° 0 mm 0 mps 731 mmHg 91%
    01:00 +26°C° 0 mm 0 mps 731 mmHg 92%
    02:00 +25°C° 0 mm 0 mps 731 mmHg 92%
    03:00 +25°C° 0 mm 0 mps 731 mmHg 92%
    04:00 +25°C° 0 mm 0 mps 731 mmHg 93%
    05:00 +25°C° 0 mm 0 mps 731 mmHg 93%
    06:00 +26°C° 0 mm 0 mps 731 mmHg 89%
    07:00 +28°C° 0 mm 0 mps 732 mmHg 86%
    08:00 +29°C° 0 mm 0 mps 732 mmHg 82%
    09:00 +31°C° 1.4 mm 0 mps 732 mmHg 78%
    10:00 +32°C° 1.4 mm 0 mps 732 mmHg 73%
    11:00 +33°C° 1.4 mm 0 mps 732 mmHg 69%
    12:00 +33°C° 2.2 mm 0 mps 731 mmHg 70%
    13:00 +33°C° 2.2 mm 0 mps 731 mmHg 71%
    14:00 +33°C° 2.2 mm 0 mps 730 mmHg 73%
    15:00 +33°C° 2 mm 0 mps 730 mmHg 74%
    16:00 +32°C° 2 mm 0 mps 730 mmHg 76%
    17:00 +32°C° 2 mm 0 mps 729 mmHg 78%
    18:00 +30°C° 0.8 mm 0 mps 730 mmHg 82%
    19:00 +29°C° 0.8 mm 0 mps 730 mmHg 85%
    20:00 +27°C° 0.8 mm 0 mps 730 mmHg 89%
    21:00 +27°C° 0.1 mm 0 mps 730 mmHg 90%
    22:00 +27°C° 0.1 mm 0 mps 731 mmHg 90%
    23:00 +26°C° 0.1 mm 0 mps 731 mmHg 91%

    22 July, Monday

    Time Temperature Precipitation Wind Pressure Humidity
    00:00 +26°C° 0 mm 0 mps 731 mmHg 91%
    01:00 +26°C° 0 mm 0 mps 731 mmHg 92%
    02:00 +26°C° 0 mm 0 mps 730 mmHg 92%
    03:00 +26°C° 0 mm 0 mps 730 mmHg 93%
    04:00 +25°C° 0 mm 0 mps 730 mmHg 94%
    05:00 +27°C° 0 mm 1 mps 730 mmHg 95%
    06:00 +26°C° 0 mm 0 mps 731 mmHg 91%
    07:00 +28°C° 0 mm 0 mps 731 mmHg 88%
    08:00 +29°C° 0 mm 0 mps 732 mmHg 84%
    09:00 +32°C° 0 mm 1 mps 731 mmHg 77%
    10:00 +34°C° 0 mm 1 mps 731 mmHg 69%
    11:00 +36°C° 0 mm 2 mps 731 mmHg 61%
    12:00 +36°C° 0.2 mm 2 mps 731 mmHg 63%
    13:00 +36°C° 0.2 mm 2 mps 730 mmHg 64%
    14:00 +36°C° 0.2 mm 2 mps 730 mmHg 66%
    15:00 +36°C° 0.9 mm 2 mps 729 mmHg 71%
    16:00 +34°C° 0.9 mm 1 mps 729 mmHg 76%
    17:00 +34°C° 0.9 mm 1 mps 729 mmHg 81%
    18:00 +32°C° 1.5 mm 1 mps 729 mmHg 84%
    19:00 +31°C° 1.5 mm 1 mps 730 mmHg 88%
    20:00 +29°C° 1.5 mm 1 mps 730 mmHg 91%
    21:00 +29°C° 0 mm 1 mps 730 mmHg 91%
    22:00 +29°C° 0 mm 1 mps 730 mmHg 91%
    23:00 +28°C° 0 mm 1 mps 731 mmHg 91%

    23 July, Tuesday

    Time Temperature Precipitation Wind Pressure Humidity
    00:00 +28°C° 0 mm 1 mps 730 mmHg 91%
    01:00 +28°C° 0 mm 1 mps 730 mmHg 92%
    02:00 +28°C° 0 mm 1 mps 730 mmHg 92%
    03:00 +28°C° 0 mm 1 mps 730 mmHg 92%
    04:00 +28°C° 0 mm 1 mps 730 mmHg 93%
    05:00 +25°C° 0 mm 0 mps 730 mmHg 93%
    06:00 +28°C° 0 mm 1 mps 730 mmHg 90%
    07:00 +30°C° 0 mm 1 mps 731 mmHg 87%
    08:00 +31°C° 0 mm 1 mps 731 mmHg 83%
    09:00 +32°C° 0 mm 1 mps 731 mmHg 76%
    10:00 +34°C° 0 mm 2 mps 731 mmHg 68%
    11:00 +36°C° 0 mm 3 mps 731 mmHg 60%
    12:00 +36°C° 0 mm 3 mps 731 mmHg 59%
    13:00 +37°C° 0 mm 3 mps 730 mmHg 58%
    14:00 +37°C° 0 mm 3 mps 730 mmHg 57%
    15:00 +36°C° 0.1 mm 3 mps 730 mmHg 62%
    16:00 +35°C° 0.1 mm 3 mps 730 mmHg 68%
    17:00 +35°C° 0.1 mm 2 mps 729 mmHg 73%
    18:00 +32°C° 0 mm 2 mps 730 mmHg 78%
    19:00 +31°C° 0 mm 1 mps 730 mmHg 83%
    20:00 +29°C° 0 mm 1 mps 730 mmHg 87%
    21:00 +29°C° 0 mm 1 mps 731 mmHg 88%
    22:00 +29°C° 0 mm 1 mps 731 mmHg 88%
    23:00 +28°C° 0 mm 1 mps 731 mmHg 89%
    Show more